Tracking 25710 objects as of 5-Jul-2022
HD Live streaming from Space Station
objects crossing your sky now

FENGYUN 1C DEB

Track FENGYUN 1C DEB now!
10-day predictions


NORAD ID: 32451
Int'l Code: 1999-025DBP
Perigee: 837.0 km
Apogee: 1,145.8 km
Inclination: 100.0 °
Period: 104.8 minutes
Semi major axis: 7362 km
RCS: 0.0193 m2 (small)
Launch date: May 10, 1999
Source: People's Republic of China (PRC)
Launch site: Taiyaun Space Center, China (TSC)

Note: This is SATELLITE DEBRIS
aabbcc
Your satellite tracking list
Your tracking list is empty




NASA's NSSDC Master Catalog

Two Line Element Set (TLE):
1 32451U 99025DBP 22181.90195032  .00000972  00000-0  92359-3 0  9992
2 32451  99.9514  81.2848 0209742 220.4867 138.0513 13.74282468443791
Source of the keplerian elements: AFSPC